Holdrege, NE

12:01 PM CDT on June 29, 2017 (GMT -0500)
Brewster

Weather History for KHDE - July, 2013

Change the Weather History Date:

Friday, July 12, 2013

  Actual Average Record
Temperature  
Mean Temperature 85 °F -  
Max Temperature 100 °F 89 °F 112 °F (1954)
Min Temperature 70 °F 64 °F 48 °F (1975)
Cooling Degree Days 20    
Growing Degree Days 35 (Base 50)    
Moisture  
Dew Point 64 °F    
Average Humidity 53    
Maximum Humidity 82    
Minimum Humidity 30    
Precipitation  
Precipitation 0.00 in - - ()
Sea Level Pressure  
Sea Level Pressure 29.92 in    
Wind  
Wind Speed 13 mph (SSE)    
Max Wind Speed 17 mph    
Max Gust Speed 24 mph    
Visibility 10 miles    
Events      
Averages and records for this station are not official NWS values.
T = Trace of Precipitation, MM = Missing Value Source: NWS Daily Summary

Daily Weather History Graph

Daily Weather History Graph

Search for Another Location

Airport or City:

Trip Planner

Search our weather history database for the weather conditions in past years. The results will help you decide how hot, cold, wet, or windy it might be!

Date:

Astronomy

Jul. 12, 2013 Rise Set
Actual Time 6:17 AM CDT 9:07 PM CDT
Civil Twilight 5:45 AM CDT 9:40 PM CDT
Nautical Twilight 5:04 AM CDT 10:20 PM CDT
Astronomical Twilight 4:17 AM CDT 11:07 PM CDT
Moon 10:37 AM CDT (7/12) 11:18 PM CDT (7/12)
Length of Visible Light 15h 54m
Length of Day
14h 50m
Waxing Crescent, 17% of the Moon is Illuminated
Jul 12
Waxing Crescent
Jul 15
First Quarter
Jul 22
Full
Jul 29
Last Quarter
Aug 6
New

Hourly Weather History & Observations

Time (CDT) Temp. Heat Index Dew Point Humidity Pressure Visibility Wind Dir Wind Speed Gust Speed Precip Events Conditions
12:15 AM 77.2 °F - 63.1 °F 62% 29.98 in 10.0 mi SSE 15.0 mph - N/A   Clear
12:35 AM 77.0 °F - 63.5 °F 63% 29.98 in 10.0 mi SSE 13.8 mph 20.7 mph N/A   Clear
12:55 AM 76.5 °F - 64.4 °F 66% 29.98 in 10.0 mi SSE 13.8 mph - N/A   Clear
1:15 AM 76.1 °F - 64.8 °F 68% 29.97 in 10.0 mi SSE 12.7 mph - N/A   Clear
1:35 AM 75.9 °F - 65.3 °F 70% 29.97 in 10.0 mi SSE 12.7 mph 18.4 mph N/A   Clear
1:55 AM 76.5 °F - 65.3 °F 68% 29.97 in 10.0 mi SSE 16.1 mph 20.7 mph N/A   Clear
2:15 AM 76.1 °F - 65.3 °F 69% 29.97 in 10.0 mi SSE 11.5 mph - N/A   Clear
2:35 AM 75.7 °F - 65.3 °F 70% 29.97 in 10.0 mi SSE 13.8 mph 21.9 mph N/A   Clear
2:55 AM 75.2 °F - 65.3 °F 71% 29.96 in 10.0 mi SSE 12.7 mph - N/A   Clear
3:15 AM 74.5 °F - 65.3 °F 73% 29.96 in 10.0 mi SSE 11.5 mph - N/A   Clear
3:35 AM 73.8 °F - 65.3 °F 75% 29.95 in 10.0 mi SSE 10.4 mph - N/A   Clear
3:55 AM 73.4 °F - 64.9 °F 75% 29.96 in 10.0 mi SSE 10.4 mph - N/A   Clear
4:15 AM 73.4 °F - 64.8 °F 74% 29.95 in 10.0 mi South 9.2 mph - N/A   Clear
4:35 AM 73.4 °F - 64.4 °F 73% 29.96 in 10.0 mi SSE 10.4 mph - N/A   Clear
4:55 AM 72.7 °F - 64.4 °F 75% 29.95 in 10.0 mi SSE 9.2 mph - N/A   Clear
5:15 AM 72.0 °F - 64.4 °F 77% 29.95 in 10.0 mi SSE 9.2 mph - N/A   Clear
5:35 AM 71.1 °F - 64.4 °F 79% 29.94 in 10.0 mi SSE 11.5 mph - N/A   Clear
5:55 AM 70.7 °F - 64.4 °F 80% 29.94 in 10.0 mi SSE 11.5 mph - N/A   Clear
6:15 AM 70.3 °F - 64.6 °F 82% 29.94 in 10.0 mi SSE 9.2 mph - N/A   Clear
6:35 AM 70.5 °F - 64.4 °F 81% 29.94 in 10.0 mi SSE 9.2 mph - N/A   Clear
6:55 AM 71.1 °F - 64.4 °F 79% 29.94 in 10.0 mi SSE 9.2 mph - N/A   Clear
7:15 AM 71.8 °F - 64.4 °F 77% 29.94 in 10.0 mi SSE 10.4 mph - N/A   Clear
7:35 AM 72.9 °F - 64.4 °F 75% 29.94 in 10.0 mi SSE 9.2 mph - N/A   Clear
7:55 AM 73.8 °F - 64.2 °F 72% 29.94 in 10.0 mi SSE 10.4 mph 16.1 mph N/A   Clear
8:15 AM 75.2 °F - 64.4 °F 69% 29.94 in 10.0 mi South 10.4 mph - N/A   Clear
8:35 AM 76.1 °F - 64.6 °F 67% 29.95 in 10.0 mi South 11.5 mph - N/A   Clear
8:55 AM 77.0 °F - 64.6 °F 65% 29.94 in 10.0 mi SSE 11.5 mph - N/A   Clear
9:15 AM 78.6 °F - 65.7 °F 64% 29.94 in 10.0 mi South 12.7 mph - N/A   Clear
9:35 AM 80.4 °F 82.3 °F 65.5 °F 60% 29.94 in 10.0 mi South 11.5 mph 19.6 mph N/A   Clear
9:55 AM 81.7 °F 83.5 °F 65.3 °F 57% 29.94 in 10.0 mi SSE 15.0 mph 20.7 mph N/A   Clear
10:15 AM 82.6 °F 84.3 °F 64.9 °F 55% 29.94 in 10.0 mi South 16.1 mph 20.7 mph N/A   Clear
10:35 AM 83.5 °F 85.3 °F 65.3 °F 54% 29.94 in 10.0 mi South 13.8 mph - N/A   Clear
10:55 AM 85.3 °F 87.1 °F 65.5 °F 51% 29.93 in 10.0 mi South 13.8 mph 19.6 mph N/A   Clear
11:15 AM 86.4 °F 88.1 °F 65.1 °F 49% 29.93 in 10.0 mi South 15.0 mph 19.6 mph N/A   Clear
11:35 AM 87.6 °F 89.7 °F 65.7 °F 48% 29.93 in 10.0 mi SSE 15.0 mph 20.7 mph N/A   Clear
11:55 AM 88.9 °F 91.4 °F 66.2 °F 47% 29.93 in 10.0 mi South 13.8 mph 21.9 mph N/A   Clear
12:15 PM 90.3 °F 92.6 °F 65.5 °F 44% 29.93 in 10.0 mi South 17.3 mph 21.9 mph N/A   Clear
12:35 PM 92.5 °F 94.6 °F 64.8 °F 40% 29.93 in 10.0 mi South 16.1 mph - N/A   Clear
12:55 PM 93.0 °F 94.2 °F 63.5 °F 37% 29.92 in 10.0 mi South 15.0 mph 23.0 mph N/A   Clear
1:15 PM 92.7 °F 94.4 °F 64.6 °F 39% 29.92 in 10.0 mi South 15.0 mph 18.4 mph N/A   Clear
1:35 PM 93.2 °F 95.3 °F 64.6 °F 39% 29.91 in 10.0 mi South 12.7 mph 17.3 mph N/A   Clear
1:55 PM 95.7 °F 97.2 °F 63.3 °F 34% 29.91 in 10.0 mi SSE 15.0 mph 21.9 mph N/A   Clear
2:15 PM 97.2 °F 99.1 °F 63.7 °F 33% 29.90 in 10.0 mi SSE 15.0 mph 19.6 mph N/A   Clear
2:35 PM 97.9 °F 99.8 °F 63.1 °F 32% 29.90 in 10.0 mi SSE 15.0 mph 21.9 mph N/A   Clear
2:55 PM 99.0 °F 100.5 °F 62.4 °F 30% 29.89 in 10.0 mi SSE 15.0 mph 23.0 mph N/A   Clear
3:15 PM 97.5 °F 99.2 °F 63.1 °F 32% 29.88 in 10.0 mi SSE 17.3 mph 24.2 mph N/A   Clear
3:35 PM 98.1 °F 100.1 °F 63.5 °F 32% 29.88 in 10.0 mi SSE 16.1 mph 21.9 mph N/A   Clear
3:55 PM 99.1 °F 101.4 °F 63.7 °F 31% 29.87 in 10.0 mi SSE 16.1 mph 21.9 mph N/A   Clear
4:15 PM 99.5 °F 102.0 °F 63.7 °F 31% 29.87 in 10.0 mi SSE 15.0 mph - N/A   Clear
4:35 PM 99.5 °F 102.6 °F 64.6 °F 32% 29.87 in 10.0 mi SSE 11.5 mph 20.7 mph N/A   Clear
4:55 PM 100.0 °F 103.0 °F 64.4 °F 31% 29.86 in 10.0 mi SE 15.0 mph 20.7 mph N/A   Clear
5:15 PM 98.6 °F 101.0 °F 64.2 °F 32% 29.86 in 10.0 mi SE 17.3 mph 20.7 mph N/A   Clear
5:35 PM 98.8 °F 100.8 °F 63.7 °F 31% 29.85 in 10.0 mi SE 17.3 mph - N/A   Clear
5:55 PM 98.4 °F 100.7 °F 63.7 °F 32% 29.85 in 10.0 mi SE 16.1 mph 20.7 mph N/A   Clear
6:15 PM 98.2 °F 99.9 °F 63.1 °F 31% 29.84 in 10.0 mi SE 17.3 mph 24.2 mph N/A   Clear
6:35 PM 95.7 °F 97.2 °F 63.0 °F 34% 29.85 in 10.0 mi SE 15.0 mph 21.9 mph N/A   Clear
6:55 PM 95.4 °F 97.1 °F 63.7 °F 35% 29.84 in 10.0 mi SE 13.8 mph - N/A   Clear
7:15 PM 94.8 °F 96.2 °F 63.1 °F 35% 29.84 in 10.0 mi SE 13.8 mph 17.3 mph N/A   Clear
7:35 PM 92.8 °F 94.7 °F 64.4 °F 39% 29.85 in 10.0 mi SE 12.7 mph - N/A   Clear
7:55 PM 91.8 °F 93.0 °F 63.5 °F 39% 29.85 in 10.0 mi SE 13.8 mph - N/A   Clear
8:15 PM 90.5 °F 91.8 °F 63.7 °F 41% 29.86 in 10.0 mi SE 12.7 mph - N/A   Clear
8:35 PM 89.6 °F 90.8 °F 63.5 °F 42% 29.86 in 10.0 mi SE 11.5 mph - N/A   Clear
8:55 PM 88.9 °F 89.7 °F 63.0 °F 42% 29.86 in 10.0 mi SE 11.5 mph - N/A   Clear
9:15 PM 87.8 °F 88.5 °F 63.0 °F 43% 29.86 in 10.0 mi SE 11.5 mph - N/A   Clear
9:35 PM 85.1 °F 86.4 °F 63.9 °F 49% 29.87 in 10.0 mi SE 10.4 mph - N/A   Clear
9:55 PM 86.4 °F 87.8 °F 64.4 °F 48% 29.89 in 10.0 mi SE 13.8 mph - N/A   Clear
10:15 PM 85.6 °F 87.4 °F 65.1 °F 50% 29.89 in 10.0 mi SSE 13.8 mph - N/A   Clear
10:35 PM 84.7 °F 86.6 °F 65.3 °F 52% 29.90 in 10.0 mi SSE 13.8 mph - N/A   Clear
10:55 PM 85.1 °F 86.6 °F 64.8 °F 50% 29.91 in 10.0 mi SSE 11.5 mph - N/A   Clear
11:15 PM 85.1 °F 86.4 °F 63.9 °F 49% 29.91 in 10.0 mi SSE 11.5 mph - N/A   Clear
11:35 PM 85.3 °F 86.1 °F 62.8 °F 47% 29.91 in 10.0 mi SSE 11.5 mph - N/A   Clear
11:55 PM 83.5 °F 84.5 °F 63.1 °F 50% 29.92 in 10.0 mi SSE 10.4 mph - N/A   Clear